Temp
59 52 48 55 58 60 57 53 51 56 57 54 54 55 60 59 58 57 57 56 54 54 52 52 52 51 52 51 53 53 52 52 53 53 52 52 50 50 48 49 49 50 51 52
51 47 59 62 61 57 56 51 50 56 57 52 52 53 59 61 59 60 61 58 55 51 49 51 50 50 50 50 52 53 53 54 55 56 55 53 49 47 47 46 47 48 48 48
52 56 62 60 54 53 51 49 50 51 52 50 47 45 53 59 64 62 61 60 58 51 48 48 48 47 48 50 52 53 54 55 55 54 51 49 48 45 44 42 42 45 46 45
54 61 56 54 53 55 48 55 55 52 45 39 48 35 49 56 57 61 57 53 52 51 51 49 48 46 46 46 53 54 54 54 54 51 48 46 44 41 41 41 41 42 42 42
51 51 50 50 53 57 50 53 50 48 44 40 41 38 45 55 54 55 50 51 51 50 49 47 47 47 46 45 46 49 47 49 50 50 48 46 43 41 40 40 40 39 39 40
51 52 53 53 51 53 53 49 47 44 42 31 42 42 41 51 55 54 52 51 51 49 47 47 46 46 44 43 44 44 45 46 48 47 46 44 41 41 40 39 37 37 37 37
48 49 51 53 46 49 49 44 33 29 27 29 41 39 46 51 51 53 53 51 50 48 47 45 43 42 41 41 42 44 44 44 46 46 45 44 43 42 40 39 37 36 35 35
42 39 49 51 51 45 44 46 34 28 27 30 34 32 43 48 49 50 54 52 49 47 47 44 43 43 42 42 42 43 43 43 44 44 43 43 43 41 40 40 38 36 35 35
47 45 52 52 52 52 43 39 50 36 26 26 36 41 50 45 44 45 48 48 47 47 46 45 45 43 41 41 41 42 42 42 43 42 42 42 41 40 39 39 37 35 35 37
52 42 48 46 50 50 46 49 35 35 22 23 34 39 42 39 43 43 45 46 47 47 46 46 46 44 43 42 42 42 42 42 41 41 41 41 40 39 38 37 35 35 34 35
51 45 38 44 41 43 41 40 43 43 36 28 27 36 49 50 49 44 46 48 47 47 47 47 46 45 43 42 42 41 41 41 40 40 39 37 37 38 37 35 34 33 33 34
51 47 32 38 45 47 46 44 44 34 32 37 31 40 49 50 51 49 47 48 48 47 47 47 46 45 43 42 42 42 40 39 38 39 37 36 36 35 35 34 34 33 33 32
50 40 33 34 38 40 40 44 48 48 38 37 31 38 47 47 48 49 47 46 47 47 47 47 46 44 44 43 41 41 40 39 38 38 36 34 34 33 34 33 33 32 31 31
53 43 41 37 41 44 36 40 45 45 36 36 40 44 39 44 44 47 47 48 48 47 47 46 45 45 44 43 42 41 40 40 37 37 34 33 33 33 33 32 32 31 31 29
50 36 41 46 49 45 40 40 42 41 43 38 43 44 51 48 45 48 48 47 47 46 46 46 45 45 44 43 42 42 42 40 39 37 34 33 33 33 32 31 30 30 30 30
45 37 41 38 44 41 40 45 42 43 44 45 46 45 52 54 52 47 49 47 46 45 46 47 46 44 44 44 43 43 42 39 38 36 34 33 33 32 30 30 29 28 28 27
38 36 33 33 39 37 33 38 43 44 46 46 39 48 51 52 49 49 48 48 47 46 47 45 45 45 45 45 44 42 41 37 35 33 31 31 32 30 29 29 28 27 25 26
37 36 34 33 34 27 40 46 47 45 47 49 47 47 43 48 49 50 51 48 47 45 44 45 45 45 42 41 41 40 37 35 33 32 30 29 30 29 26 26 25 24 25 24
44 38 33 31 32 38 41 34 39 38 41 49 49 50 42 40 43 41 45 47 46 45 46 46 45 44 43 40 39 36 33 33 33 31 30 29 29 26 25 24 23 23 23 21
39 43 34 31 29 29 34 34 40 44 36 42 45 47 36 40 39 41 43 43 45 45 42 40 40 39 39 36 36 35 32 32 30 29 31 29 27 26 26 25 22 22 19 22
30 34 32 32 32 33 30 31 37 33 34 29 34 37 38 41 43 42 40 41 40 38 37 36 38 38 36 34 33 31 29 30 30 27 27 26 26 27 26 23 19 20 18 20
32 31 32 33 31 29 34 33 36 34 32 32 34 35 36 36 37 36 37 36 36 35 35 35 35 34 33 31 31 28 29 29 26 25 24 23 23 25 23 22 16 17 16 13
29 32 33 32 31 30 31 32 35 35 33 37 37 37 36 36 36 36 35 35 34 34 33 33 32 32 31 27 28 28 27 26 23 22 20 19 19 20 19 18 16 12 12 13
28 30 30 30 27 28 31 34 34 35 36 37 37 37 37 37 35 34 33 33 33 30 30 26 27 26 25 23 26 23 24 23 21 20 19 17 17 14 13 16 16 14 13 12
29 30 27 24 27 28 31 32 33 36 35 36 35 34 35 35 34 34 31 31 31 30 26 26 27 26 26 22 22 19 21 22 20 18 16 15 13 14 12 13 12 14 11 15
30 28 28 26 30 31 32 35 35 34 34 34 33 32 33 35 34 32 30 30 30 28 23 23 22 22 22 22 19 18 20 20 19 16 16 15 15 12 12 11 9 23 24 25
MSLP
1015.44 1015.57 1015.04 1014.85 1014.81 1014.52 1014.45 1014.70 1014.72 1014.36 1014.92 1015.35 1015.44 1015.31 1014.97 1015.10 1015.57 1015.99 1016.52 1017.26 1018.34 1019.46 1020.50 1021.36 1021.84 1022.21 1022.50 1022.92 1023.23 1023.37 1023.55 1023.85 1024.01 1024.38 1024.69 1024.97 1025.55 1026.05 1026.39 1026.42 1026.58 1026.61 1026.59 1026.55
1015.78 1015.06 1014.54 1014.53 1014.34 1014.57 1014.65 1014.93 1015.04 1014.80 1015.17 1015.49 1015.43 1015.00 1014.53 1014.29 1014.43 1014.62 1015.28 1016.15 1017.48 1019.13 1020.53 1021.42 1021.94 1022.10 1022.40 1022.89 1023.28 1023.55 1023.75 1023.93 1023.98 1024.23 1024.76 1025.23 1026.12 1026.71 1027.05 1027.31 1027.50 1027.66 1027.75 1027.73
1014.69 1014.18 1013.78 1014.40 1014.59 1014.77 1014.89 1015.12 1015.29 1015.54 1015.71 1015.95 1015.96 1015.06 1014.17 1013.18 1012.99 1013.62 1014.31 1015.23 1016.45 1018.10 1019.83 1021.20 1022.01 1022.34 1022.37 1022.63 1023.13 1023.53 1023.73 1023.82 1024.02 1024.34 1025.05 1025.81 1026.49 1027.13 1027.63 1027.90 1028.19 1028.52 1028.57 1028.52
1014.51 1014.20 1014.40 1014.38 1014.67 1015.05 1015.33 1015.00 1015.41 1015.93 1016.68 1016.71 1016.34 1015.11 1013.68 1012.73 1012.44 1012.81 1013.70 1014.88 1016.15 1017.74 1019.26 1020.53 1021.63 1022.37 1022.59 1022.80 1022.98 1023.19 1023.37 1023.74 1024.29 1024.66 1025.34 1025.95 1026.53 1027.45 1028.07 1028.24 1028.59 1028.69 1028.81 1029.04
1013.86 1014.02 1014.46 1014.62 1014.44 1014.91 1015.49 1015.45 1015.97 1016.50 1017.10 1017.31 1017.11 1016.40 1012.89 1012.23 1012.25 1012.19 1013.26 1014.60 1015.92 1017.18 1018.59 1020.06 1021.22 1022.06 1022.46 1022.96 1023.27 1023.57 1023.76 1023.90 1024.15 1024.51 1025.04 1025.87 1026.86 1027.74 1028.27 1028.63 1029.18 1029.56 1029.57 1029.43
1014.22 1014.45 1014.46 1014.56 1015.22 1015.32 1015.76 1016.43 1016.95 1017.47 1017.98 1017.67 1016.93 1016.28 1012.67 1011.94 1011.27 1011.59 1012.92 1014.24 1015.63 1017.07 1018.49 1019.83 1021.05 1021.90 1022.60 1023.04 1023.42 1023.77 1024.01 1024.20 1024.28 1024.60 1025.36 1026.22 1027.15 1027.87 1028.41 1028.91 1029.26 1029.91 1030.34 1030.39
1014.44 1014.41 1014.58 1014.78 1015.55 1016.09 1016.10 1016.96 1017.84 1018.63 1018.84 1017.31 1016.04 1015.64 1012.43 1011.53 1011.29 1011.55 1012.57 1014.23 1015.62 1016.99 1018.43 1019.77 1020.86 1021.78 1022.58 1022.97 1023.33 1023.71 1023.95 1024.25 1024.28 1024.62 1025.37 1026.17 1026.94 1027.64 1028.29 1029.10 1029.34 1029.71 1030.38 1030.79
1013.40 1013.61 1013.73 1014.18 1013.96 1014.97 1016.16 1016.48 1017.36 1017.85 1018.35 1017.67 1016.42 1014.52 1012.21 1011.87 1011.81 1012.10 1012.89 1014.24 1015.67 1017.04 1018.28 1019.47 1020.52 1021.31 1022.03 1022.53 1023.00 1023.42 1023.78 1024.04 1024.31 1024.94 1025.63 1026.16 1026.73 1027.48 1028.17 1028.80 1029.42 1029.82 1030.53 1031.22
1011.95 1012.45 1012.53 1013.40 1013.74 1014.35 1015.95 1016.45 1016.15 1017.45 1018.37 1017.98 1015.53 1013.46 1011.97 1011.95 1012.52 1013.05 1013.58 1014.51 1015.71 1016.82 1017.82 1018.88 1019.90 1020.78 1021.68 1022.31 1022.78 1023.12 1023.51 1024.04 1024.51 1025.13 1025.72 1026.24 1026.82 1027.27 1028.13 1028.80 1029.49 1030.06 1030.75 1031.14
1011.16 1012.02 1013.03 1014.28 1014.53 1014.47 1014.55 1015.13 1016.69 1017.54 1018.26 1016.89 1014.08 1012.47 1011.20 1011.82 1012.11 1013.09 1013.61 1014.06 1015.21 1016.46 1017.51 1018.45 1019.34 1020.27 1021.26 1022.07 1022.63 1023.01 1023.39 1023.96 1024.63 1025.27 1025.85 1026.44 1026.84 1027.57 1028.16 1028.71 1029.53 1030.18 1030.82 1031.21
1011.23 1012.17 1014.35 1014.72 1014.25 1013.48 1014.88 1014.94 1015.37 1015.96 1016.42 1015.61 1013.72 1010.41 1008.52 1009.30 1010.23 1011.58 1012.83 1013.55 1014.49 1015.66 1016.74 1017.80 1018.86 1019.97 1020.88 1021.79 1022.42 1022.81 1023.34 1023.89 1024.61 1025.20 1025.87 1026.44 1027.06 1027.66 1028.04 1028.72 1029.30 1030.27 1030.86 1031.29
1010.38 1011.57 1013.54 1013.59 1013.04 1012.97 1013.14 1013.68 1014.18 1014.78 1014.93 1013.99 1013.07 1007.85 1008.49 1008.86 1009.16 1010.47 1011.79 1012.96 1014.13 1015.17 1016.07 1017.03 1018.02 1019.11 1020.16 1021.04 1021.85 1022.38 1022.98 1023.71 1024.30 1024.95 1025.64 1026.35 1027.12 1027.62 1028.04 1028.72 1029.27 1030.04 1030.69 1031.15
1009.68 1011.32 1013.03 1013.35 1013.81 1013.41 1012.96 1012.66 1012.79 1013.26 1013.38 1011.36 1013.04 1007.96 1009.05 1009.27 1009.46 1010.27 1011.45 1012.55 1013.46 1014.52 1015.54 1016.47 1017.55 1018.38 1019.30 1020.33 1021.21 1021.85 1022.44 1023.22 1023.89 1024.56 1025.54 1026.46 1027.03 1027.35 1027.92 1028.55 1029.19 1029.89 1030.58 1031.34
1009.03 1009.87 1010.18 1009.96 1009.81 1010.81 1012.02 1011.90 1011.92 1012.46 1011.76 1011.29 1008.76 1008.84 1009.28 1009.48 1009.98 1010.51 1010.97 1011.71 1012.80 1013.76 1014.62 1015.61 1016.75 1017.48 1018.45 1019.44 1020.34 1021.14 1021.99 1022.68 1023.45 1024.17 1025.13 1026.13 1026.59 1027.14 1027.83 1028.38 1029.02 1029.56 1030.29 1031.01
1009.31 1009.89 1010.24 1009.52 1009.59 1009.93 1010.31 1010.50 1010.68 1010.62 1009.49 1010.29 1006.18 1008.07 1008.01 1008.58 1009.21 1009.50 1010.09 1011.29 1012.24 1013.09 1014.05 1014.70 1015.61 1016.56 1017.54 1018.69 1019.64 1020.57 1021.41 1022.11 1023.03 1023.90 1024.86 1025.65 1026.08 1026.91 1027.67 1028.25 1028.75 1029.29 1030.03 1030.65
1009.50 1009.72 1010.30 1009.55 1009.46 1009.66 1009.78 1009.48 1008.74 1009.39 1009.25 1008.81 1007.37 1005.36 1007.23 1006.84 1007.60 1008.89 1009.62 1010.58 1011.43 1012.06 1012.75 1013.75 1014.90 1015.96 1016.67 1017.60 1018.64 1019.60 1020.52 1021.44 1022.53 1023.60 1024.49 1025.21 1025.84 1026.45 1027.19 1027.82 1028.52 1029.26 1030.02 1030.56
1010.17 1010.79 1010.79 1008.87 1009.34 1009.86 1009.65 1004.70 1008.22 1007.63 1007.37 1007.05 1006.72 1003.41 1006.71 1006.91 1007.29 1007.85 1008.54 1009.45 1010.35 1011.22 1012.10 1013.04 1013.74 1014.58 1015.69 1016.72 1017.73 1018.81 1019.84 1020.98 1022.21 1023.17 1024.13 1024.63 1025.32 1026.14 1026.80 1027.53 1028.42 1029.07 1029.74 1030.17
1009.47 1010.32 1010.52 1008.92 1009.41 1007.85 1002.98 1005.05 1005.48 1006.17 1005.44 1005.87 1005.47 1004.73 1006.08 1006.41 1006.68 1006.95 1007.40 1008.26 1009.70 1010.81 1011.83 1012.70 1013.55 1014.44 1015.37 1016.18 1017.33 1018.48 1019.58 1020.62 1021.82 1022.92 1023.67 1024.36 1025.13 1025.87 1026.66 1027.46 1028.21 1028.87 1029.35 1029.81
1008.19 1009.12 1009.13 1008.83 1007.44 1006.14 1004.43 1004.96 1004.76 1005.34 1003.50 1004.49 1004.71 1005.12 1006.09 1006.73 1007.32 1007.64 1007.66 1008.13 1008.91 1010.37 1011.40 1011.86 1012.74 1014.00 1015.06 1016.02 1016.91 1018.12 1019.48 1020.55 1021.62 1022.46 1023.29 1024.00 1024.61 1025.62 1026.39 1027.18 1027.92 1028.46 1028.96 1029.47
1007.56 1007.31 1008.21 1008.11 1006.97 1005.95 1003.99 1004.37 1004.18 1005.01 1004.22 1003.50 1004.31 1004.87 1006.06 1007.00 1007.75 1007.58 1008.24 1008.79 1009.58 1010.58 1010.67 1012.08 1013.39 1014.03 1015.09 1016.09 1016.86 1018.19 1019.41 1020.35 1021.20 1021.90 1022.53 1023.35 1024.12 1024.94 1025.78 1026.43 1027.16 1027.66 1028.23 1028.75
1007.28 1006.89 1006.09 1006.40 1006.22 1005.69 1005.33 1005.48 1005.32 1006.32 1004.94 1004.73 1004.72 1004.85 1005.95 1006.70 1006.83 1007.38 1008.25 1008.92 1009.76 1010.94 1012.14 1012.94 1013.56 1014.35 1015.24 1016.20 1017.20 1018.56 1019.53 1020.18 1020.42 1021.31 1022.16 1022.99 1023.68 1024.34 1024.99 1025.88 1026.60 1027.14 1027.80 1028.36
1005.77 1006.25 1006.24 1006.71 1006.46 1006.23 1005.98 1006.51 1006.75 1006.47 1006.09 1005.88 1005.85 1006.21 1006.89 1007.16 1007.68 1008.27 1008.78 1009.96 1011.24 1012.01 1012.79 1013.46 1014.30 1015.20 1015.96 1016.80 1017.67 1018.85 1019.46 1019.47 1020.14 1021.05 1021.91 1022.69 1023.35 1024.01 1024.74 1025.48 1026.24 1026.88 1027.54 1028.21
1006.51 1005.83 1005.91 1006.54 1006.58 1006.89 1007.03 1007.25 1007.01 1006.93 1006.81 1006.84 1006.93 1007.38 1007.80 1008.34 1008.97 1009.55 1010.43 1011.22 1012.07 1012.77 1013.55 1014.35 1015.00 1015.88 1016.58 1017.25 1017.81 1018.76 1018.89 1019.45 1020.31 1021.19 1022.00 1022.65 1023.30 1023.84 1024.36 1025.20 1026.06 1026.89 1027.37 1027.88
1006.91 1006.79 1006.86 1007.25 1008.02 1008.02 1008.06 1008.02 1007.62 1007.33 1007.12 1007.23 1007.66 1008.40 1008.80 1009.36 1009.97 1010.61 1011.30 1012.19 1012.98 1013.66 1014.34 1015.00 1015.72 1016.33 1017.06 1017.38 1017.88 1018.18 1018.73 1019.30 1020.26 1021.15 1022.07 1022.83 1023.45 1024.24 1024.70 1025.06 1025.57 1026.12 1026.58 1027.14
1007.43 1007.45 1007.84 1008.71 1008.97 1009.02 1008.89 1008.80 1008.39 1008.09 1008.16 1008.52 1008.76 1008.95 1009.32 1009.78 1010.48 1011.10 1012.08 1012.84 1013.44 1014.06 1014.71 1015.30 1015.80 1016.43 1017.00 1017.41 1017.98 1018.54 1018.91 1019.48 1020.52 1021.20 1021.96 1022.79 1023.52 1024.12 1024.75 1025.09 1025.31 1025.57 1025.89 1026.25
1007.16 1007.51 1007.83 1008.18 1008.52 1008.51 1008.26 1008.01 1008.05 1008.34 1008.63 1009.16 1009.46 1009.70 1010.04 1010.21 1010.95 1011.64 1012.48 1012.92 1013.58 1014.34 1015.04 1015.74 1016.37 1017.01 1017.42 1017.88 1018.45 1019.04 1019.22 1019.62 1020.41 1021.31 1022.09 1022.68 1023.40 1024.16 1024.60 1025.03 1025.13 1024.77 1024.96 1025.16
Wind_Speed
6 4 8 12 11 10 9 6 8 6 4 4 9 10 11 12 9 10 10 11 10 9 8 7 6 6 6 6 6 6 8 6 5 4 5 5 6 7 6 7 8 7 6 8
3 10 13 9 6 6 9 7 10 7 8 2 7 12 10 7 15 17 15 11 12 10 8 7 7 7 6 7 6 6 6 5 4 3 4 4 5 5 6 5 7 8 10 8
11 3 3 11 3 4 6 7 7 7 4 4 5 9 14 13 16 15 11 7 12 16 12 9 7 6 6 8 7 6 6 5 6 9 7 7 6 4 5 5 5 7 8 9
10 12 3 6 7 8 8 4 11 5 3 4 7 7 8 9 13 16 11 9 11 13 11 10 9 8 7 6 6 6 7 8 7 8 7 7 5 6 3 5 5 6 7 8
5 7 9 7 6 8 4 6 3 2 5 4 4 8 8 16 17 12 11 11 10 11 12 12 10 8 8 7 6 6 7 6 6 7 8 8 9 5 4 5 8 7 6 7
2 2 3 4 5 3 9 5 2 1 1 6 14 13 6 13 15 8 10 11 11 12 11 11 9 9 7 7 7 7 7 5 7 8 9 9 9 8 7 5 6 5 4 4
7 9 4 4 6 4 4 6 2 3 1 9 2 10 15 5 2 3 15 14 11 12 12 12 12 9 9 8 8 7 8 8 7 9 9 9 9 8 8 7 5 6 4 3
12 6 17 10 13 8 11 9 7 7 5 4 4 8 8 3 6 4 11 13 12 13 12 12 12 10 10 10 9 8 9 8 8 8 8 8 9 5 5 6 5 5 5 4
8 7 6 5 4 10 6 8 9 4 2 2 7 8 6 5 4 1 10 14 14 14 13 14 13 10 10 10 9 9 10 7 8 8 7 7 7 8 7 8 6 5 6 4
4 3 2 4 4 3 5 6 4 1 3 7 6 12 10 6 11 9 12 17 16 15 14 13 13 12 10 9 8 8 8 9 8 8 7 6 7 8 7 7 8 7 6 5
3 0 1 6 9 14 5 4 5 4 5 5 5 9 4 15 16 19 16 16 17 17 16 14 12 11 11 8 8 8 9 10 9 8 7 8 7 8 7 7 7 7 6 6
9 3 6 10 2 1 3 8 11 6 7 9 3 21 2 4 12 15 17 15 15 16 15 14 14 13 13 12 10 10 8 10 8 8 8 8 7 7 8 7 8 7 7 6
13 6 1 3 2 3 7 8 16 14 1 20 6 12 3 7 6 9 13 14 15 16 15 14 14 15 14 13 12 11 10 11 10 9 9 8 8 8 8 8 8 7 7 7
15 7 15 20 7 8 8 11 19 18 13 5 28 17 2 5 5 7 11 15 15 17 18 16 15 15 14 14 13 12 10 11 10 10 9 9 8 8 7 8 8 8 7 7
13 8 9 20 18 7 8 12 21 26 27 17 25 25 19 12 14 17 10 12 15 16 17 18 17 15 15 14 14 13 12 12 12 11 10 10 8 8 8 8 8 8 7 7
2 9 13 23 17 9 15 18 20 24 24 28 31 37 5 11 13 10 15 16 17 18 19 18 15 14 16 16 15 14 13 11 13 11 11 8 9 8 8 9 9 7 7 7
8 5 5 23 8 8 11 40 21 25 25 25 28 37 12 14 14 16 17 17 18 16 18 17 17 16 14 15 15 15 13 10 12 10 8 9 10 9 9 9 9 8 8 6
11 15 6 13 5 14 21 6 27 30 30 26 29 23 9 12 13 13 12 19 15 12 12 12 10 10 9 9 10 10 9 11 11 11 9 8 9 9 8 9 9 7 6 8
14 13 8 9 14 17 22 3 12 15 31 27 28 20 9 6 5 3 6 7 9 9 10 11 10 9 9 9 10 10 9 11 11 11 10 10 10 9 10 11 10 6 6 6
14 19 13 6 9 14 5 3 3 6 24 15 18 21 12 11 12 6 8 6 9 8 9 9 9 7 10 7 11 12 10 11 11 11 11 10 9 11 12 11 11 6 5 7
8 11 21 19 16 6 4 5 0 9 8 3 3 7 13 10 4 7 11 6 7 7 9 8 9 11 10 9 10 10 9 12 9 7 8 8 10 11 10 8 5 7 6 6
13 11 11 11 12 16 6 2 10 2 4 1 4 4 6 7 6 7 9 10 10 11 9 8 9 7 7 9 10 10 12 7 8 8 8 8 8 7 7 9 5 6 7 6
4 2 4 4 2 2 3 3 2 2 3 4 4 4 6 8 4 6 7 9 7 9 8 6 8 8 6 7 7 10 6 8 8 8 7 6 6 6 6 9 8 5 6 6
2 2 1 3 4 2 4 3 3 3 5 8 4 5 7 8 8 6 7 7 7 6 7 5 8 7 6 6 7 4 7 8 8 7 7 6 7 5 4 4 5 6 7 6
1 4 4 2 1 1 6 5 6 4 1 4 3 2 4 7 6 6 6 6 6 6 4 6 7 6 7 6 6 4 6 8 6 6 6 5 4 6 5 3 4 4 3 6
5 5 4 3 7 3 6 11 10 7 4 4 3 2 2 5 7 6 6 5 6 6 4 4 3 3 4 4 4 5 6 7 7 5 5 5 5 4 4 5 2 10 11 13
Wind_Direction
202 208 207 210 217 249 294 313 295 304 136 185 225 244 248 190 200 214 196 179 177 168 129 139 124 133 119 105 114 117 119 121 118 105 100 85 83 76 62 56 53 46 48 54
109 233 236 237 239 251 235 254 264 284 129 164 274 266 257 227 209 205 206 192 168 136 141 152 155 157 150 130 125 121 129 142 140 109 83 84 96 84 83 63 60 52 45 43
209 181 219 226 202 215 240 234 254 244 153 220 303 276 252 244 232 206 212 187 163 154 155 157 155 160 143 140 139 133 149 145 99 98 97 99 94 75 78 59 65 52 52 58
231 246 196 178 214 187 248 235 227 255 323 244 138 280 279 286 239 220 187 158 144 147 147 149 160 159 154 132 125 134 127 117 119 125 128 137 116 115 97 102 89 75 60 59
213 167 169 195 183 185 207 54 29 244 248 303 260 269 255 225 248 217 174 174 157 151 146 147 159 155 138 137 138 120 108 118 143 154 124 112 111 109 109 100 93 78 63 65
264 339 194 189 55 1 127 90 101 61 183 257 222 221 207 239 229 206 180 170 156 148 143 143 135 129 137 129 130 134 136 129 113 104 105 115 125 132 126 117 108 98 79 69
204 202 172 149 98 12 173 139 253 300 211 236 323 217 243 267 288 220 174 166 161 149 149 148 150 159 153 162 157 150 143 140 132 121 126 133 133 129 123 125 125 125 106 85
195 218 174 183 202 167 194 179 167 225 209 260 343 236 252 14 77 43 150 155 146 154 160 161 167 166 162 160 160 155 151 142 130 123 129 130 126 130 123 126 130 112 110 113
194 229 106 141 173 141 175 218 245 11 44 2 216 260 275 153 143 193 151 153 165 168 169 170 170 163 159 163 169 162 147 137 131 128 124 122 121 114 123 115 109 106 116 122
272 221 171 70 61 316 175 153 94 213 233 252 245 242 238 219 213 185 186 176 174 174 176 176 173 165 162 169 167 151 143 141 136 131 129 129 123 122 129 120 122 125 131 131
188 170 119 126 211 177 134 207 213 165 187 222 275 256 231 195 191 191 196 185 181 180 181 178 172 166 164 162 167 157 147 142 141 140 140 133 135 142 133 132 130 139 146 150
183 134 173 211 71 171 207 177 185 170 223 235 171 255 278 19 180 179 186 185 181 185 183 179 172 168 170 171 170 165 152 150 152 144 139 147 150 147 138 141 142 145 152 144
168 180 174 220 335 339 203 204 210 224 99 232 193 253 344 10 90 166 170 181 182 180 181 176 174 181 178 174 171 166 164 159 155 147 150 157 163 154 153 150 148 150 142 150
166 160 193 224 214 144 190 198 207 207 228 194 235 249 161 214 212 183 187 182 178 181 182 183 185 185 180 178 174 172 166 160 161 156 156 167 170 161 162 152 151 150 157 161
177 210 211 243 247 203 175 199 207 212 224 211 251 240 234 212 202 209 186 167 176 182 184 189 188 186 179 177 175 174 173 165 167 166 167 178 162 160 159 154 154 156 163 170
173 229 227 255 242 232 252 247 212 216 230 240 250 255 185 219 200 176 184 180 186 187 191 192 186 181 181 180 178 175 175 165 167 171 179 163 162 166 162 154 160 154 159 163
144 200 183 247 196 248 262 238 230 227 222 220 237 249 208 236 196 191 189 185 188 189 191 188 185 184 180 180 175 177 171 155 166 166 166 169 168 168 164 158 155 166 177 168
177 196 194 256 128 222 245 229 221 230 240 229 241 248 207 222 208 201 187 170 180 179 172 174 170 166 167 156 159 151 153 157 160 170 171 168 168 167 156 157 170 171 171 177
202 186 213 227 228 265 276 180 167 186 245 228 239 240 199 152 95 264 159 166 154 157 168 163 158 159 153 152 154 142 143 150 165 174 174 177 169 164 163 177 180 180 166 177
210 203 204 185 226 231 302 346 103 106 258 175 206 229 161 145 199 219 154 123 122 143 123 134 149 133 140 143 134 141 153 159 176 173 182 174 167 170 182 184 181 170 171 189
187 207 214 219 237 258 197 232 205 169 252 302 319 163 154 179 220 141 132 110 96 121 133 125 128 141 143 135 135 146 154 187 182 156 157 165 175 183 186 169 158 166 169 166
176 179 208 222 232 239 180 48 179 249 342 2 73 80 96 107 90 112 99 116 133 138 135 132 127 130 137 143 146 154 184 178 153 156 161 168 171 171 165 168 156 163 165 173
198 205 174 211 213 327 4 10 79 325 141 45 61 75 102 104 111 126 137 135 141 145 139 132 139 139 146 156 159 164 197 153 148 148 161 158 150 155 154 159 162 148 164 182
240 312 81 161 14 360 340 293 303 357 51 21 36 135 161 160 148 125 131 142 139 137 145 130 133 145 166 172 180 183 148 144 145 152 154 150 152 145 144 146 163 174 183 194
81 132 98 53 339 23 310 282 286 308 355 4 34 52 126 126 134 140 141 143 149 147 139 154 161 171 199 173 196 153 140 140 149 142 142 142 143 158 159 170 171 183 200 185
177 151 168 190 185 170 221 217 223 226 222 200 161 83 53 131 146 132 157 161 157 161 140 137 163 165 207 185 157 154 157 152 143 145 154 162 159 164 160 171 215 231 216 225